Time,TemperatureF,DewpointF,PressureIn,WindDirection,WindDirectionDegrees,WindSpeedMPH,WindSpeedGustMPH,Humidity,HourlyPrecipIn,Conditions,Clouds,dailyrainin,SoftwareType,DateUTC
2013-10-08 00:04:00,60.6,45.8,30.24,NNE,22,2.7,5.4,58,0.00,,---,0.00,VWS V14.01,2013-10-07 21:04:00,
2013-10-08 00:09:00,60.6,45.3,30.24,North,6,0.0,4.0,57,0.00,,---,0.00,VWS V14.01,2013-10-07 21:09:00,
2013-10-08 00:14:00,60.6,45.3,30.24,NNE,21,8.1,8.1,57,0.00,,---,0.00,VWS V14.01,2013-10-07 21:14:00,
2013-10-08 00:19:00,60.6,45.3,30.24,NE,50,5.8,7.6,57,0.00,,---,0.00,VWS V14.01,2013-10-07 21:19:00,
2013-10-08 00:25:00,60.8,45.0,30.24,North,9,6.3,7.6,56,0.00,,---,0.00,VWS V14.01,2013-10-07 21:25:00,
2013-10-08 00:30:00,61.0,45.2,30.24,NE,38,5.4,8.3,56,0.00,,---,0.00,VWS V14.01,2013-10-07 21:30:00,
2013-10-08 00:36:00,61.0,45.2,30.24,NNW,345,6.3,9.2,56,0.00,,---,0.00,VWS V14.01,2013-10-07 21:36:00,
2013-10-08 00:41:00,61.0,45.2,30.24,North,1,0.0,3.1,56,0.00,,---,0.00,VWS V14.01,2013-10-07 21:41:00,
2013-10-08 00:46:00,60.8,45.0,30.24,North,353,2.7,5.8,56,0.00,,---,0.00,VWS V14.01,2013-10-07 21:46:00,
2013-10-08 00:51:00,60.8,45.0,30.24,NNE,17,3.6,5.8,56,0.00,,---,0.00,VWS V14.01,2013-10-07 21:51:00,
2013-10-08 00:57:00,60.6,44.8,30.24,North,357,0.0,0.0,56,0.00,,---,0.00,VWS V14.01,2013-10-07 21:57:00,
2013-10-08 01:02:00,60.4,45.2,30.24,NE,37,5.8,7.6,57,0.00,,---,0.00,VWS V14.01,2013-10-07 22:02:00,
2013-10-08 01:08:00,60.4,45.2,30.24,ENE,65,4.9,6.3,57,0.00,,---,0.00,VWS V14.01,2013-10-07 22:08:00,
2013-10-08 01:14:00,60.4,45.2,30.24,ESE,111,2.7,3.6,57,0.00,,---,0.00,VWS V14.01,2013-10-07 22:14:00,
2013-10-08 01:19:00,60.3,45.4,30.24,NE,42,5.4,5.4,58,0.00,,---,0.00,VWS V14.01,2013-10-07 22:19:00,
2013-10-08 01:25:00,60.3,45.4,30.24,East,84,0.0,6.3,58,0.00,,---,0.00,VWS V14.01,2013-10-07 22:25:00,
2013-10-08 01:30:00,60.3,45.4,30.24,NNE,27,4.0,5.8,58,0.00,,---,0.00,VWS V14.01,2013-10-07 22:30:00,
2013-10-08 01:36:00,60.3,45.4,30.24,NE,35,3.6,4.9,58,0.00,,---,0.00,VWS V14.01,2013-10-07 22:36:00,
2013-10-08 01:42:00,60.1,45.7,30.24,ENE,65,5.8,5.8,59,0.00,,---,0.00,VWS V14.01,2013-10-07 22:42:00,
2013-10-08 01:47:00,59.7,45.4,30.24,ENE,78,4.0,5.4,59,0.00,,---,0.00,VWS V14.01,2013-10-07 22:47:00,
2013-10-08 01:53:00,59.7,45.8,30.24,NNE,23,4.0,5.8,60,0.00,,---,0.00,VWS V14.01,2013-10-07 22:53:00,
2013-10-08 01:59:00,59.5,45.7,30.24,NNE,29,8.1,8.3,60,0.00,,---,0.00,VWS V14.01,2013-10-07 22:59:00,
2013-10-08 02:04:00,59.7,45.8,30.24,NNE,24,2.2,2.2,60,0.00,,---,0.00,VWS V14.01,2013-10-07 23:04:00,
2013-10-08 02:10:00,59.7,45.8,30.24,NNE,31,0.0,4.0,60,0.00,,---,0.00,VWS V14.01,2013-10-07 23:10:00,
2013-10-08 02:15:00,59.5,45.7,30.24,NE,51,3.6,3.6,60,0.00,,---,0.00,VWS V14.01,2013-10-07 23:15:00,
2013-10-08 02:20:00,59.4,45.5,30.24,NE,52,0.0,0.0,60,0.00,,---,0.00,VWS V14.01,2013-10-07 23:20:00,
2013-10-08 02:27:00,59.2,45.8,30.24,NE,52,0.0,0.0,61,0.00,,---,0.00,VWS V14.01,2013-10-07 23:27:00,
2013-10-08 02:32:00,59.0,45.6,30.24,NE,54,0.0,0.0,61,0.00,,---,0.00,VWS V14.01,2013-10-07 23:32:00,
2013-10-08 02:38:00,58.8,45.8,30.24,NE,43,0.0,0.0,62,0.00,,---,0.00,VWS V14.01,2013-10-07 23:38:00,
2013-10-08 02:44:00,58.8,45.8,30.24,ENE,63,0.0,0.0,62,0.00,,---,0.00,VWS V14.01,2013-10-07 23:44:00,
2013-10-08 02:49:00,59.0,45.6,30.24,NNE,17,0.0,0.0,61,0.00,,---,0.00,VWS V14.01,2013-10-07 23:49:00,
2013-10-08 02:55:00,59.2,45.8,30.24,NNE,29,0.0,0.0,61,0.00,,---,0.00,VWS V14.01,2013-10-07 23:55:00,
2013-10-08 03:00:00,59.2,45.8,30.24,West,265,0.0,0.0,61,0.00,,---,0.00,VWS V14.01,2013-10-08 00:00:00,
2013-10-08 03:05:00,59.2,45.8,30.24,West,265,0.0,0.0,61,0.00,,---,0.00,VWS V14.01,2013-10-08 00:05:00,
2013-10-08 03:10:00,59.2,45.8,30.24,NNW,338,0.0,0.0,61,0.00,,---,0.00,VWS V14.01,2013-10-08 00:10:00,
2013-10-08 03:16:00,59.2,45.8,30.24,NW,316,0.0,0.0,61,0.00,,---,0.00,VWS V14.01,2013-10-08 00:16:00,
2013-10-08 03:21:00,59.2,45.8,30.24,NW,305,0.0,0.0,61,0.00,,---,0.00,VWS V14.01,2013-10-08 00:21:00,
2013-10-08 03:27:00,59.2,45.8,30.24,NW,320,0.0,0.0,61,0.00,,---,0.00,VWS V14.01,2013-10-08 00:27:00,
2013-10-08 03:33:00,59.0,45.6,30.24,NNW,343,0.0,0.0,61,0.00,,---,0.00,VWS V14.01,2013-10-08 00:33:00,
2013-10-08 03:38:00,58.8,45.4,30.24,WNW,298,0.0,0.0,61,0.00,,---,0.00,VWS V14.01,2013-10-08 00:38:00,
2013-10-08 03:43:00,58.8,45.4,30.24,NW,307,0.0,0.0,61,0.00,,---,0.00,VWS V14.01,2013-10-08 00:43:00,
2013-10-08 03:48:00,58.6,45.2,30.24,North,0,0.0,0.0,61,0.00,,---,0.00,VWS V14.01,2013-10-08 00:48:00,
2013-10-08 03:54:00,58.8,45.4,30.24,North,8,0.0,0.0,61,0.00,,---,0.00,VWS V14.01,2013-10-08 00:54:00,
2013-10-08 03:59:00,58.8,45.4,30.24,NE,37,2.7,4.0,61,0.00,,---,0.00,VWS V14.01,2013-10-08 00:59:00,
2013-10-08 04:05:00,58.8,45.4,30.24,NNE,32,0.0,0.0,61,0.00,,---,0.00,VWS V14.01,2013-10-08 01:05:00,
2013-10-08 04:10:00,59.0,45.2,30.24,North,353,0.0,0.0,60,0.00,,---,0.00,VWS V14.01,2013-10-08 01:10:00,
2013-10-08 04:15:00,59.0,45.2,30.24,NE,55,0.0,0.0,60,0.00,,---,0.00,VWS V14.01,2013-10-08 01:15:00,
2013-10-08 04:20:00,59.0,44.7,30.24,SE,129,0.0,0.0,59,0.00,,---,0.00,VWS V14.01,2013-10-08 01:20:00,
2013-10-08 04:26:00,59.0,44.7,30.24,North,3,0.0,3.6,59,0.00,,---,0.00,VWS V14.01,2013-10-08 01:26:00,
2013-10-08 04:31:00,59.0,44.3,30.24,NE,44,0.0,0.0,58,0.00,,---,0.00,VWS V14.01,2013-10-08 01:31:00,
2013-10-08 04:37:00,59.0,44.3,30.24,NE,48,3.6,5.4,58,0.00,,---,0.00,VWS V14.01,2013-10-08 01:37:00,
2013-10-08 04:43:00,59.2,44.4,30.24,ENE,63,0.0,0.0,58,0.00,,---,0.00,VWS V14.01,2013-10-08 01:43:00,
2013-10-08 04:48:00,59.2,44.0,30.24,ENE,69,2.7,3.6,57,0.00,,---,0.00,VWS V14.01,2013-10-08 01:48:00,
2013-10-08 04:54:00,59.2,44.0,30.21,ENE,69,0.0,0.0,57,0.00,,---,0.00,VWS V14.01,2013-10-08 01:54:00,
2013-10-08 04:59:00,59.2,44.0,30.21,North,357,2.2,3.6,57,0.00,,---,0.00,VWS V14.01,2013-10-08 01:59:00,
2013-10-08 05:05:00,59.2,44.0,30.21,NNE,21,0.0,0.0,57,0.00,,---,0.00,VWS V14.01,2013-10-08 02:05:00,
2013-10-08 05:11:00,59.2,44.4,30.21,NNE,25,0.0,0.0,58,0.00,,---,0.00,VWS V14.01,2013-10-08 02:11:00,
2013-10-08 05:16:00,59.2,44.4,30.21,ENE,61,7.6,7.6,58,0.00,,---,0.00,VWS V14.01,2013-10-08 02:16:00,
2013-10-08 05:23:00,59.2,44.4,30.21,North,9,0.0,4.0,58,0.00,,---,0.00,VWS V14.01,2013-10-08 02:23:00,
2013-10-08 05:29:00,59.2,44.0,30.21,NNE,32,0.0,0.0,57,0.00,,---,0.00,VWS V14.01,2013-10-08 02:29:00,
2013-10-08 05:34:00,59.2,44.0,30.21,North,11,3.1,4.0,57,0.00,,---,0.00,VWS V14.01,2013-10-08 02:34:00,
2013-10-08 05:40:00,59.2,44.0,30.21,NE,54,3.1,3.6,57,0.00,,---,0.00,VWS V14.01,2013-10-08 02:40:00,
2013-10-08 05:45:00,59.2,44.0,30.21,ENE,72,0.0,0.0,57,0.00,,---,0.00,VWS V14.01,2013-10-08 02:45:00,
2013-10-08 05:51:00,59.2,44.0,30.21,NE,40,2.7,4.9,57,0.00,,---,0.00,VWS V14.01,2013-10-08 02:51:00,
2013-10-08 05:56:00,59.2,44.0,30.21,North,5,3.6,3.6,57,0.00,,---,0.00,VWS V14.01,2013-10-08 02:56:00,
2013-10-08 06:01:00,59.2,44.0,30.21,East,84,4.9,6.3,57,0.00,,---,0.00,VWS V14.01,2013-10-08 03:01:00,
2013-10-08 06:08:00,59.2,43.5,30.21,NE,39,4.0,5.8,56,0.00,,---,0.00,VWS V14.01,2013-10-08 03:08:00,
2013-10-08 06:13:00,59.4,43.7,30.21,NE,47,2.2,5.4,56,0.00,,---,0.00,VWS V14.01,2013-10-08 03:13:00,
2013-10-08 06:19:00,59.4,43.7,30.21,North,4,4.9,4.9,56,0.00,,---,0.00,VWS V14.01,2013-10-08 03:19:00,
2013-10-08 06:25:00,59.4,43.7,30.21,ENE,62,0.0,3.1,56,0.00,,---,0.00,VWS V14.01,2013-10-08 03:25:00,
2013-10-08 06:30:00,59.5,43.8,30.21,NNW,338,5.4,7.6,56,0.00,,---,0.00,VWS V14.01,2013-10-08 03:30:00,
2013-10-08 06:35:00,59.7,42.6,30.21,North,357,6.3,6.3,53,0.00,,---,0.00,VWS V14.01,2013-10-08 03:35:00,
2013-10-08 06:40:00,59.7,42.1,30.21,North,10,2.7,5.8,52,0.00,,---,0.00,VWS V14.01,2013-10-08 03:40:00,
2013-10-08 06:46:00,59.9,42.2,30.21,NNE,25,5.4,5.4,52,0.00,,---,0.00,VWS V14.01,2013-10-08 03:46:00,
2013-10-08 06:51:00,59.9,42.7,30.21,NE,46,0.0,6.3,53,0.00,,---,0.00,VWS V14.01,2013-10-08 03:51:00,
2013-10-08 06:57:00,59.7,42.6,30.21,NNE,19,4.9,4.9,53,0.00,,---,0.00,VWS V14.01,2013-10-08 03:57:00,
2013-10-08 07:01:00,59.7,43.1,30.21,NNE,20,0.0,0.0,54,0.00,,---,0.00,VWS V14.01,2013-10-08 04:01:00,
2013-10-08 07:02:00,59.7,43.1,30.21,NE,49,4.0,4.0,54,0.00,,---,0.00,VWS V14.01,2013-10-08 04:02:00,
2013-10-08 07:05:00,59.5,43.4,30.21,NNE,21,0.0,0.0,55,0.00,,---,0.00,VWS V14.01,2013-10-08 04:05:00,
2013-10-08 07:07:00,59.5,43.4,30.21,NE,37,0.0,0.0,55,0.00,,---,0.00,VWS V14.01,2013-10-08 04:07:00,
2013-10-08 07:12:00,59.5,43.8,30.21,North,8,3.1,3.1,56,0.00,,---,0.00,VWS V14.01,2013-10-08 04:12:00,
2013-10-08 07:18:00,59.5,43.8,30.21,NNE,29,6.7,6.7,56,0.00,,---,0.00,VWS V14.01,2013-10-08 04:18:00,
2013-10-08 07:23:00,59.4,44.1,30.24,ENE,75,5.8,6.7,57,0.00,,---,0.00,VWS V14.01,2013-10-08 04:23:00,
2013-10-08 07:28:00,59.4,43.7,30.24,ENE,77,5.8,8.3,56,0.00,,---,0.00,VWS V14.01,2013-10-08 04:28:00,
2013-10-08 07:33:00,59.7,44.0,30.24,East,87,2.2,5.4,56,0.00,,---,0.00,VWS V14.01,2013-10-08 04:33:00,
2013-10-08 07:38:00,59.7,44.0,30.24,North,6,13.2,13.2,56,0.00,,---,0.00,VWS V14.01,2013-10-08 04:38:00,
2013-10-08 07:43:00,59.9,44.2,30.24,NNE,17,4.0,5.8,56,0.00,,---,0.00,VWS V14.01,2013-10-08 04:43:00,
2013-10-08 07:49:00,59.9,44.2,30.24,East,98,4.9,5.4,56,0.00,,---,0.00,VWS V14.01,2013-10-08 04:49:00,
2013-10-08 07:54:00,59.9,44.2,30.24,NNE,21,6.7,6.7,56,0.00,,---,0.00,VWS V14.01,2013-10-08 04:54:00,
2013-10-08 08:00:00,60.1,44.3,30.24,NE,34,7.6,7.6,56,0.00,,---,0.00,VWS V14.01,2013-10-08 05:00:00,
2013-10-08 08:05:00,60.1,44.3,30.24,NNE,19,3.1,7.2,56,0.00,,---,0.00,VWS V14.01,2013-10-08 05:05:00,
2013-10-08 08:11:00,60.1,44.3,30.24,East,80,0.0,6.3,56,0.00,,---,0.00,VWS V14.01,2013-10-08 05:11:00,
2013-10-08 08:16:00,60.1,44.3,30.24,West,281,2.7,5.4,56,0.00,,---,0.00,VWS V14.01,2013-10-08 05:16:00,
2013-10-08 08:21:00,60.3,44.5,30.24,North,0,0.0,0.0,56,0.00,,---,0.00,VWS V14.01,2013-10-08 05:21:00,
2013-10-08 08:28:00,60.3,45.0,30.24,North,1,4.9,4.9,57,0.00,,---,0.00,VWS V14.01,2013-10-08 05:28:00,
2013-10-08 08:33:00,60.4,45.2,30.24,North,350,6.3,7.2,57,0.00,,---,0.00,VWS V14.01,2013-10-08 05:33:00,
2013-10-08 08:39:00,60.6,45.3,30.24,NNE,28,0.0,5.8,57,0.00,,---,0.00,VWS V14.01,2013-10-08 05:39:00,
2013-10-08 08:45:00,60.6,44.8,30.24,ENE,76,0.0,4.0,56,0.00,,---,0.00,VWS V14.01,2013-10-08 05:45:00,
2013-10-08 08:50:00,60.6,44.8,30.24,NE,55,2.7,2.7,56,0.00,,---,0.00,VWS V14.01,2013-10-08 05:50:00,
2013-10-08 08:55:00,60.6,44.8,30.24,ENE,72,4.9,6.3,56,0.00,,---,0.00,VWS V14.01,2013-10-08 05:55:00,
2013-10-08 09:00:00,60.6,45.3,30.24,ENE,59,2.7,5.4,57,0.00,,---,0.00,VWS V14.01,2013-10-08 06:00:00,
2013-10-08 09:06:00,61.0,45.7,30.24,NNE,29,10.5,10.5,57,0.00,,---,0.00,VWS V14.01,2013-10-08 06:06:00,
2013-10-08 09:11:00,61.2,45.8,30.24,NE,44,6.7,6.7,57,0.00,,---,0.00,VWS V14.01,2013-10-08 06:11:00,
2013-10-08 09:17:00,61.3,46.0,30.24,East,96,3.1,5.4,57,0.00,,---,0.00,VWS V14.01,2013-10-08 06:17:00,
2013-10-08 09:22:00,61.7,46.3,30.27,NNE,27,8.1,8.7,57,0.00,,---,0.00,VWS V14.01,2013-10-08 06:22:00,
2013-10-08 09:27:00,61.7,46.3,30.27,NNE,31,5.8,7.6,57,0.00,,---,0.00,VWS V14.01,2013-10-08 06:27:00,
2013-10-08 09:34:00,61.9,46.5,30.27,ENE,57,2.7,4.0,57,0.00,,---,0.00,VWS V14.01,2013-10-08 06:34:00,
2013-10-08 09:39:00,62.1,46.7,30.27,NNE,16,5.4,10.5,57,0.00,,---,0.00,VWS V14.01,2013-10-08 06:39:00,
2013-10-08 09:44:00,62.1,46.7,30.27,North,11,6.3,10.1,57,0.00,,---,0.00,VWS V14.01,2013-10-08 06:44:00,
2013-10-08 09:49:00,62.2,46.8,30.27,NNE,27,5.8,8.1,57,0.00,,---,0.00,VWS V14.01,2013-10-08 06:49:00,
2013-10-08 09:55:00,62.2,46.8,30.27,ENE,72,10.1,11.9,57,0.00,,---,0.00,VWS V14.01,2013-10-08 06:55:00,
2013-10-08 10:00:00,62.4,46.5,30.27,North,5,8.1,10.1,56,0.00,,---,0.00,VWS V14.01,2013-10-08 07:00:00,
2013-10-08 10:06:00,62.6,46.2,30.27,NNE,21,3.1,8.3,55,0.00,,---,0.00,VWS V14.01,2013-10-08 07:06:00,
2013-10-08 10:11:00,62.8,46.4,30.27,North,2,7.2,9.2,55,0.00,,---,0.00,VWS V14.01,2013-10-08 07:11:00,
2013-10-08 10:17:00,63.1,46.7,30.27,North,350,3.6,4.9,55,0.00,,---,0.00,VWS V14.01,2013-10-08 07:17:00,
2013-10-08 10:22:00,63.3,46.4,30.27,NNW,339,11.0,11.0,54,0.00,,---,0.00,VWS V14.01,2013-10-08 07:22:00,
2013-10-08 10:28:00,63.5,46.6,30.27,ENE,71,7.6,11.0,54,0.00,,---,0.00,VWS V14.01,2013-10-08 07:28:00,
2013-10-08 10:33:00,63.7,46.2,30.27,North,8,4.0,6.3,53,0.00,,---,0.00,VWS V14.01,2013-10-08 07:33:00,
2013-10-08 10:38:00,64.2,47.2,30.27,ENE,73,4.0,4.0,54,0.00,,---,0.00,VWS V14.01,2013-10-08 07:38:00,
2013-10-08 10:44:00,64.4,47.4,30.27,NNE,14,4.9,11.0,54,0.00,,---,0.00,VWS V14.01,2013-10-08 07:44:00,
2013-10-08 10:49:00,64.4,46.9,30.27,North,9,8.7,8.7,53,0.00,,---,0.00,VWS V14.01,2013-10-08 07:49:00,
2013-10-08 10:56:00,64.2,47.2,30.27,NNE,12,9.6,9.6,54,0.00,,---,0.00,VWS V14.01,2013-10-08 07:56:00,
2013-10-08 11:02:00,64.2,47.2,30.27,NE,40,8.1,8.1,54,0.00,,---,0.00,VWS V14.01,2013-10-08 08:02:00,
2013-10-08 11:07:00,64.8,47.8,30.27,NNE,26,8.3,9.6,54,0.00,,---,0.00,VWS V14.01,2013-10-08 08:07:00,
2013-10-08 11:12:00,64.9,47.9,30.27,NNW,340,2.7,4.0,54,0.00,,---,0.00,VWS V14.01,2013-10-08 08:12:00,
2013-10-08 11:17:00,65.3,48.2,30.27,North,10,6.7,10.5,54,0.00,,---,0.00,VWS V14.01,2013-10-08 08:17:00,
2013-10-08 11:23:00,65.5,48.4,30.27,ENE,64,10.1,10.5,54,0.00,,---,0.00,VWS V14.01,2013-10-08 08:23:00,
2013-10-08 11:28:00,65.1,48.1,30.27,NNE,20,7.6,10.1,54,0.00,,---,0.00,VWS V14.01,2013-10-08 08:28:00,
2013-10-08 11:34:00,65.1,48.6,30.27,North,0,6.3,6.7,55,0.00,,---,0.00,VWS V14.01,2013-10-08 08:34:00,
2013-10-08 11:39:00,65.7,48.6,30.27,North,10,6.3,9.2,54,0.00,,---,0.00,VWS V14.01,2013-10-08 08:39:00,
2013-10-08 11:45:00,65.7,48.1,30.27,North,0,5.8,8.7,53,0.00,,---,0.00,VWS V14.01,2013-10-08 08:45:00,
2013-10-08 11:50:00,66.2,48.1,30.27,NNE,12,4.9,6.3,52,0.00,,---,0.00,VWS V14.01,2013-10-08 08:50:00,
2013-10-08 11:55:00,66.6,47.9,30.27,NNE,14,3.6,6.3,51,0.00,,---,0.00,VWS V14.01,2013-10-08 08:55:00,
2013-10-08 12:02:00,66.7,48.1,30.27,North,357,5.4,7.6,51,0.00,,---,0.00,VWS V14.01,2013-10-08 09:02:00,
2013-10-08 12:08:00,66.9,48.7,30.27,North,357,5.8,6.3,52,0.00,,---,0.00,VWS V14.01,2013-10-08 09:08:00,
2013-10-08 12:13:00,66.7,48.6,30.27,NNE,22,5.4,6.3,52,0.00,,---,0.00,VWS V14.01,2013-10-08 09:13:00,
2013-10-08 12:19:00,66.9,48.7,30.27,North,0,5.4,7.2,52,0.00,,---,0.00,VWS V14.01,2013-10-08 09:19:00,
2013-10-08 12:24:00,67.3,48.5,30.24,NNE,33,8.1,10.5,51,0.00,,---,0.00,VWS V14.01,2013-10-08 09:24:00,
2013-10-08 12:30:00,67.3,48.0,30.24,NNE,14,5.4,7.6,50,0.00,,---,0.00,VWS V14.01,2013-10-08 09:30:00,
2013-10-08 12:35:00,67.5,47.1,30.24,North,8,7.6,10.1,48,0.00,,---,0.00,VWS V14.01,2013-10-08 09:35:00,
2013-10-08 12:40:00,67.5,46.0,30.24,North,0,6.3,11.0,46,0.00,,---,0.00,VWS V14.01,2013-10-08 09:40:00,
2013-10-08 12:47:00,67.6,46.7,30.24,NNE,30,4.0,7.6,47,0.00,,---,0.00,VWS V14.01,2013-10-08 09:47:00,
2013-10-08 12:52:00,68.2,46.6,30.24,North,9,4.5,6.3,46,0.00,,---,0.00,VWS V14.01,2013-10-08 09:52:00,
2013-10-08 12:58:00,68.5,46.4,30.24,NE,54,0.0,5.4,45,0.00,,---,0.00,VWS V14.01,2013-10-08 09:58:00,
2013-10-08 13:04:00,68.9,46.7,30.24,NNW,338,8.7,8.7,45,0.00,,---,0.00,VWS V14.01,2013-10-08 10:04:00,
2013-10-08 13:09:00,68.9,46.1,30.24,NNW,328,4.0,6.3,44,0.00,,---,0.00,VWS V14.01,2013-10-08 10:09:00,
2013-10-08 13:16:00,69.1,46.3,30.24,North,4,4.0,8.3,44,0.00,,---,0.00,VWS V14.01,2013-10-08 10:16:00,
2013-10-08 13:22:00,69.4,47.2,30.24,NW,313,3.6,8.7,45,0.00,,---,0.00,VWS V14.01,2013-10-08 10:22:00,
2013-10-08 13:27:00,69.1,46.9,30.24,ENE,62,5.8,8.1,45,0.00,,---,0.00,VWS V14.01,2013-10-08 10:27:00,
2013-10-08 13:32:00,69.3,47.0,30.24,North,11,3.6,7.6,45,0.00,,---,0.00,VWS V14.01,2013-10-08 10:32:00,
2013-10-08 13:37:00,69.4,47.2,30.24,North,357,8.1,9.2,45,0.00,,---,0.00,VWS V14.01,2013-10-08 10:37:00,
2013-10-08 13:43:00,69.6,47.4,30.24,East,100,3.1,5.4,45,0.00,,---,0.00,VWS V14.01,2013-10-08 10:43:00,
2013-10-08 13:48:00,70.0,47.7,30.24,ENE,57,0.0,5.8,45,0.00,,---,0.00,VWS V14.01,2013-10-08 10:48:00,
2013-10-08 13:54:00,70.0,47.7,30.24,East,84,2.7,5.8,45,0.00,,---,0.00,VWS V14.01,2013-10-08 10:54:00,
2013-10-08 13:59:00,70.2,47.2,30.24,ENE,57,5.8,6.3,44,0.00,,---,0.00,VWS V14.01,2013-10-08 10:59:00,
2013-10-08 14:05:00,70.5,47.6,30.24,NNE,21,3.6,4.9,44,0.00,,---,0.00,VWS V14.01,2013-10-08 11:05:00,
2013-10-08 14:10:00,70.7,47.7,30.21,North,8,4.0,9.2,44,0.00,,---,0.00,VWS V14.01,2013-10-08 11:10:00,
2013-10-08 14:15:00,70.5,45.7,30.21,ENE,57,4.9,5.8,41,0.00,,---,0.00,VWS V14.01,2013-10-08 11:15:00,
2013-10-08 14:21:00,70.7,46.5,30.21,NNW,342,6.7,6.7,42,0.00,,---,0.00,VWS V14.01,2013-10-08 11:21:00,
2013-10-08 14:26:00,70.9,46.0,30.21,NNE,19,3.1,4.9,41,0.00,,---,0.00,VWS V14.01,2013-10-08 11:26:00,
2013-10-08 14:32:00,71.1,45.5,30.21,NNW,336,4.0,4.9,40,0.00,,---,0.00,VWS V14.01,2013-10-08 11:32:00,
2013-10-08 14:38:00,71.2,47.0,30.21,NNE,15,5.4,7.2,42,0.00,,---,0.00,VWS V14.01,2013-10-08 11:38:00,
2013-10-08 14:43:00,71.2,47.0,30.21,ENE,68,4.0,5.4,42,0.00,,---,0.00,VWS V14.01,2013-10-08 11:43:00,
2013-10-08 14:48:00,71.2,46.4,30.21,ENE,65,4.0,5.4,41,0.00,,---,0.00,VWS V14.01,2013-10-08 11:48:00,
2013-10-08 14:54:00,71.6,46.0,30.21,SSE,165,0.0,0.0,40,0.00,,---,0.00,VWS V14.01,2013-10-08 11:54:00,
2013-10-08 14:59:00,72.1,46.5,30.21,NW,326,4.9,6.7,40,0.00,,---,0.00,VWS V14.01,2013-10-08 11:59:00,
2013-10-08 15:04:00,72.0,46.3,30.21,NNE,18,0.0,0.0,40,0.00,,---,0.00,VWS V14.01,2013-10-08 12:04:00,
2013-10-08 15:10:00,72.7,47.0,30.21,NE,34,4.9,4.9,40,0.00,,---,0.00,VWS V14.01,2013-10-08 12:10:00,
2013-10-08 15:15:00,72.9,46.5,30.21,NNE,14,4.9,4.9,39,0.00,,---,0.00,VWS V14.01,2013-10-08 12:15:00,
2013-10-08 15:21:00,72.5,46.2,30.21,SE,136,0.0,4.9,39,0.00,,---,0.00,VWS V14.01,2013-10-08 12:21:00,
2013-10-08 15:26:00,72.7,46.3,30.21,SE,125,0.0,0.0,39,0.00,,---,0.00,VWS V14.01,2013-10-08 12:26:00,
2013-10-08 15:32:00,72.5,45.5,30.21,ENE,77,3.6,4.9,38,0.00,,---,0.00,VWS V14.01,2013-10-08 12:32:00,
2013-10-08 15:37:00,72.3,46.0,30.21,ENE,58,2.7,6.3,39,0.00,,---,0.00,VWS V14.01,2013-10-08 12:37:00,
2013-10-08 15:43:00,72.3,46.7,30.21,North,11,5.4,6.3,40,0.00,,---,0.00,VWS V14.01,2013-10-08 12:43:00,
2013-10-08 15:48:00,72.1,47.2,30.21,NNE,21,5.8,8.1,41,0.00,,---,0.00,VWS V14.01,2013-10-08 12:48:00,
2013-10-08 15:54:00,72.3,48.0,30.21,NNW,332,2.2,3.1,42,0.00,,---,0.00,VWS V14.01,2013-10-08 12:54:00,
2013-10-08 16:00:00,72.5,48.8,30.21,ENE,71,2.7,5.4,43,0.00,,---,0.00,VWS V14.01,2013-10-08 13:00:00,
2013-10-08 16:06:00,72.5,48.8,30.21,ENE,75,3.1,4.0,43,0.00,,---,0.00,VWS V14.01,2013-10-08 13:06:00,
2013-10-08 16:11:00,72.1,48.4,30.18,NE,47,5.4,6.3,43,0.00,,---,0.00,VWS V14.01,2013-10-08 13:11:00,
2013-10-08 16:17:00,72.0,48.9,30.18,ENE,75,5.8,5.8,44,0.00,,---,0.00,VWS V14.01,2013-10-08 13:17:00,
2013-10-08 16:22:00,72.0,50.1,30.18,NE,45,0.0,0.0,46,0.00,,---,0.00,VWS V14.01,2013-10-08 13:22:00,
2013-10-08 16:27:00,71.8,49.9,30.18,ENE,73,5.4,8.3,46,0.00,,---,0.00,VWS V14.01,2013-10-08 13:27:00,
2013-10-08 16:32:00,71.8,49.9,30.18,NNE,26,3.6,5.8,46,0.00,,---,0.00,VWS V14.01,2013-10-08 13:32:00,
2013-10-08 16:38:00,71.6,49.8,30.18,East,99,3.1,3.1,46,0.00,,---,0.00,VWS V14.01,2013-10-08 13:38:00,
2013-10-08 16:43:00,71.6,49.8,30.18,SE,130,0.0,0.0,46,0.00,,---,0.00,VWS V14.01,2013-10-08 13:43:00,
2013-10-08 16:49:00,71.8,49.9,30.18,NW,308,0.0,0.0,46,0.00,,---,0.00,VWS V14.01,2013-10-08 13:49:00,
2013-10-08 16:55:00,72.0,50.1,30.18,ENE,68,2.7,5.8,46,0.00,,---,0.00,VWS V14.01,2013-10-08 13:55:00,
2013-10-08 17:00:00,71.4,50.2,30.18,East,93,4.0,4.0,47,0.00,,---,0.00,VWS V14.01,2013-10-08 14:00:00,
2013-10-08 17:05:00,71.1,49.8,30.18,SE,124,0.0,3.6,47,0.00,,---,0.00,VWS V14.01,2013-10-08 14:05:00,
2013-10-08 17:11:00,71.1,49.8,30.18,NW,310,0.0,0.0,47,0.00,,---,0.00,VWS V14.01,2013-10-08 14:11:00,
2013-10-08 17:16:00,70.9,49.7,30.18,NNW,342,3.6,5.4,47,0.00,,---,0.00,VWS V14.01,2013-10-08 14:16:00,
2013-10-08 17:21:00,71.1,49.8,30.18,NNE,16,0.0,0.0,47,0.00,,---,0.00,VWS V14.01,2013-10-08 14:21:00,
2013-10-08 17:27:00,71.1,49.8,30.21,North,4,4.0,5.8,47,0.00,,---,0.00,VWS V14.01,2013-10-08 14:27:00,
2013-10-08 17:33:00,70.3,49.7,30.21,SSE,151,0.0,3.6,48,0.00,,---,0.00,VWS V14.01,2013-10-08 14:33:00,
2013-10-08 17:38:00,70.3,49.7,30.18,North,9,3.6,6.3,48,0.00,,---,0.00,VWS V14.01,2013-10-08 14:38:00,
2013-10-08 17:44:00,70.2,50.1,30.18,ENE,58,2.7,4.9,49,0.00,,---,0.00,VWS V14.01,2013-10-08 14:44:00,
2013-10-08 17:49:00,70.2,50.1,30.18,NNE,29,0.0,0.0,49,0.00,,---,0.00,VWS V14.01,2013-10-08 14:49:00,
2013-10-08 17:55:00,70.3,50.3,30.21,SE,130,0.0,0.0,49,0.00,,---,0.00,VWS V14.01,2013-10-08 14:55:00,
2013-10-08 18:01:00,70.3,50.3,30.21,ESE,116,2.7,4.0,49,0.00,,---,0.00,VWS V14.01,2013-10-08 15:01:00,
2013-10-08 18:07:00,70.0,50.0,30.21,WSW,248,0.0,0.0,49,0.00,,---,0.00,VWS V14.01,2013-10-08 15:07:00,
2013-10-08 18:12:00,69.6,50.7,30.21,ESE,123,5.8,5.8,51,0.00,,---,0.00,VWS V14.01,2013-10-08 15:12:00,
2013-10-08 18:17:00,69.1,50.2,30.21,ESE,106,0.0,0.0,51,0.00,,---,0.00,VWS V14.01,2013-10-08 15:17:00,
2013-10-08 18:23:00,69.1,50.2,30.21,ESE,107,0.0,0.0,51,0.00,,---,0.00,VWS V14.01,2013-10-08 15:23:00,
2013-10-08 18:28:00,69.1,50.2,30.21,ENE,69,2.7,4.0,51,0.00,,---,0.00,VWS V14.01,2013-10-08 15:28:00,
2013-10-08 18:33:00,68.7,49.9,30.21,North,7,0.0,0.0,51,0.00,,---,0.00,VWS V14.01,2013-10-08 15:33:00,
2013-10-08 18:38:00,68.5,49.7,30.21,North,10,0.0,0.0,51,0.00,,---,0.00,VWS V14.01,2013-10-08 15:38:00,
2013-10-08 18:44:00,68.2,49.9,30.21,NNE,18,2.2,3.6,52,0.00,,---,0.00,VWS V14.01,2013-10-08 15:44:00,
2013-10-08 18:50:00,67.8,50.1,30.21,East,82,0.0,3.6,53,0.00,,---,0.00,VWS V14.01,2013-10-08 15:50:00,
2013-10-08 18:55:00,67.5,50.2,30.21,ENE,73,0.0,0.0,54,0.00,,---,0.00,VWS V14.01,2013-10-08 15:55:00,
2013-10-08 19:01:00,67.3,50.1,30.21,NNW,343,0.0,5.4,54,0.00,,---,0.00,VWS V14.01,2013-10-08 16:01:00,
2013-10-08 19:06:00,67.1,50.4,30.21,ENE,74,0.0,0.0,55,0.00,,---,0.00,VWS V14.01,2013-10-08 16:06:00,
2013-10-08 19:11:00,66.9,50.2,30.21,ENE,74,0.0,0.0,55,0.00,,---,0.00,VWS V14.01,2013-10-08 16:11:00,
2013-10-08 19:17:00,66.7,50.1,30.21,NNE,21,3.6,5.8,55,0.00,,---,0.00,VWS V14.01,2013-10-08 16:17:00,
2013-10-08 19:22:00,66.6,49.9,30.21,NE,54,0.0,0.0,55,0.00,,---,0.00,VWS V14.01,2013-10-08 16:22:00,
2013-10-08 19:27:00,66.4,50.2,30.21,NNE,33,4.0,4.0,56,0.00,,---,0.00,VWS V14.01,2013-10-08 16:27:00,
2013-10-08 19:33:00,66.4,50.2,30.21,NNE,33,0.0,0.0,56,0.00,,---,0.00,VWS V14.01,2013-10-08 16:33:00,
2013-10-08 19:39:00,66.2,50.1,30.21,North,357,3.6,3.6,56,0.00,,---,0.00,VWS V14.01,2013-10-08 16:39:00,
2013-10-08 19:44:00,66.0,50.4,30.21,NNE,23,0.0,0.0,57,0.00,,---,0.00,VWS V14.01,2013-10-08 16:44:00,
2013-10-08 19:50:00,65.7,50.0,30.21,NNE,24,0.0,3.6,57,0.00,,---,0.00,VWS V14.01,2013-10-08 16:50:00,
2013-10-08 19:55:00,65.5,50.3,30.21,North,357,0.0,0.0,58,0.00,,---,0.00,VWS V14.01,2013-10-08 16:55:00,
2013-10-08 20:01:00,65.3,50.2,30.21,North,2,0.0,2.7,58,0.00,,---,0.00,VWS V14.01,2013-10-08 17:01:00,
2013-10-08 20:07:00,65.1,50.0,30.21,North,2,0.0,0.0,58,0.00,,---,0.00,VWS V14.01,2013-10-08 17:07:00,
2013-10-08 20:13:00,64.9,50.3,30.21,NNE,31,0.0,0.0,59,0.00,,---,0.00,VWS V14.01,2013-10-08 17:13:00,
2013-10-08 20:18:00,64.8,50.1,30.21,NNE,23,0.0,0.0,59,0.00,,---,0.00,VWS V14.01,2013-10-08 17:18:00,
2013-10-08 20:23:00,64.8,50.1,30.21,NNE,32,0.0,2.2,59,0.00,,---,0.00,VWS V14.01,2013-10-08 17:23:00,
2013-10-08 20:29:00,64.6,50.0,30.21,North,357,0.0,0.0,59,0.00,,---,0.00,VWS V14.01,2013-10-08 17:29:00,
2013-10-08 20:34:00,64.4,50.2,30.21,ENE,58,0.0,0.0,60,0.00,,---,0.00,VWS V14.01,2013-10-08 17:34:00,
2013-10-08 20:40:00,64.2,50.1,30.21,NNE,28,0.0,0.0,60,0.00,,---,0.00,VWS V14.01,2013-10-08 17:40:00,
2013-10-08 20:46:00,64.2,50.1,30.21,North,3,0.0,0.0,60,0.00,,---,0.00,VWS V14.01,2013-10-08 17:46:00,
2013-10-08 20:51:00,64.0,50.3,30.21,NNE,31,0.0,0.0,61,0.00,,---,0.00,VWS V14.01,2013-10-08 17:51:00,
2013-10-08 20:56:00,63.9,50.2,30.21,NNE,16,0.0,0.0,61,0.00,,---,0.00,VWS V14.01,2013-10-08 17:56:00,
2013-10-08 21:01:00,63.7,50.0,30.21,NNE,29,2.7,2.7,61,0.00,,---,0.00,VWS V14.01,2013-10-08 18:01:00,
2013-10-08 21:07:00,63.5,50.3,30.21,NNE,28,0.0,0.0,62,0.00,,---,0.00,VWS V14.01,2013-10-08 18:07:00,
2013-10-08 21:12:00,63.3,50.1,30.21,ENE,59,0.0,0.0,62,0.00,,---,0.00,VWS V14.01,2013-10-08 18:12:00,
2013-10-08 21:18:00,63.1,50.3,30.21,NNE,24,0.0,0.0,63,0.00,,---,0.00,VWS V14.01,2013-10-08 18:18:00,
2013-10-08 21:23:00,63.0,50.6,30.21,NE,55,0.0,0.0,64,0.00,,---,0.00,VWS V14.01,2013-10-08 18:23:00,
2013-10-08 21:29:00,63.0,50.6,30.21,ENE,62,0.0,4.0,64,0.00,,---,0.00,VWS V14.01,2013-10-08 18:29:00,
2013-10-08 21:34:00,62.8,50.0,30.21,ENE,67,3.6,4.0,63,0.00,,---,0.00,VWS V14.01,2013-10-08 18:34:00,
2013-10-08 21:39:00,63.0,50.2,30.21,East,81,0.0,0.0,63,0.00,,---,0.00,VWS V14.01,2013-10-08 18:39:00,
2013-10-08 21:44:00,63.0,50.2,30.21,ENE,63,3.1,3.1,63,0.00,,---,0.00,VWS V14.01,2013-10-08 18:44:00,
2013-10-08 21:50:00,63.0,49.8,30.21,NE,50,0.0,0.0,62,0.00,,---,0.00,VWS V14.01,2013-10-08 18:50:00,
2013-10-08 21:55:00,63.0,49.8,30.21,ENE,58,0.0,0.0,62,0.00,,---,0.00,VWS V14.01,2013-10-08 18:55:00,
2013-10-08 22:01:00,63.0,49.3,30.21,East,80,5.4,5.4,61,0.00,,---,0.00,VWS V14.01,2013-10-08 19:01:00,
2013-10-08 22:07:00,63.0,48.9,30.21,NE,43,3.1,5.4,60,0.00,,---,0.00,VWS V14.01,2013-10-08 19:07:00,
2013-10-08 22:12:00,63.0,48.9,30.21,NE,44,3.6,3.6,60,0.00,,---,0.00,VWS V14.01,2013-10-08 19:12:00,
2013-10-08 22:17:00,63.0,48.9,30.21,NNE,23,3.6,4.9,60,0.00,,---,0.00,VWS V14.01,2013-10-08 19:17:00,
2013-10-08 22:24:00,63.0,48.4,30.21,NE,36,0.0,2.7,59,0.00,,---,0.00,VWS V14.01,2013-10-08 19:24:00,
2013-10-08 22:29:00,63.0,48.4,30.21,East,90,2.2,4.0,59,0.00,,---,0.00,VWS V14.01,2013-10-08 19:29:00,
2013-10-08 22:35:00,63.0,48.4,30.21,NNE,16,5.4,5.4,59,0.00,,---,0.00,VWS V14.01,2013-10-08 19:35:00,
2013-10-08 22:40:00,63.0,48.4,30.21,NW,318,0.0,0.0,59,0.00,,---,0.00,VWS V14.01,2013-10-08 19:40:00,
2013-10-08 22:45:00,63.0,48.4,30.21,NNW,343,2.7,2.7,59,0.00,,---,0.00,VWS V14.01,2013-10-08 19:45:00,
2013-10-08 22:50:00,63.1,48.6,30.21,NNE,12,0.0,3.6,59,0.00,,---,0.00,VWS V14.01,2013-10-08 19:50:00,
2013-10-08 22:55:00,63.1,48.6,30.21,NNW,342,0.0,0.0,59,0.00,,---,0.00,VWS V14.01,2013-10-08 19:55:00,
2013-10-08 23:00:00,63.0,48.4,30.21,North,357,3.6,3.6,59,0.00,,---,0.00,VWS V14.01,2013-10-08 20:00:00,
2013-10-08 23:06:00,63.0,48.9,30.21,ENE,70,3.1,5.4,60,0.00,,---,0.00,VWS V14.01,2013-10-08 20:06:00,
2013-10-08 23:11:00,62.8,48.7,30.21,NW,321,0.0,0.0,60,0.00,,---,0.00,VWS V14.01,2013-10-08 20:11:00,
2013-10-08 23:17:00,62.4,48.4,30.21,NW,321,0.0,0.0,60,0.00,,---,0.00,VWS V14.01,2013-10-08 20:17:00,
2013-10-08 23:22:00,62.2,48.2,30.21,North,349,0.0,0.0,60,0.00,,---,0.00,VWS V14.01,2013-10-08 20:22:00,
2013-10-08 23:28:00,62.2,48.6,30.21,North,2,0.0,0.0,61,0.00,,---,0.00,VWS V14.01,2013-10-08 20:28:00,
2013-10-08 23:33:00,62.1,48.9,30.21,NE,39,2.2,3.6,62,0.00,,---,0.00,VWS V14.01,2013-10-08 20:33:00,
2013-10-08 23:38:00,61.9,49.2,30.21,NNE,32,0.0,0.0,63,0.00,,---,0.00,VWS V14.01,2013-10-08 20:38:00,
2013-10-08 23:45:00,61.7,49.4,30.21,NE,51,2.2,4.0,64,0.00,,---,0.00,VWS V14.01,2013-10-08 20:45:00,
2013-10-08 23:50:00,61.5,49.2,30.21,NE,44,0.0,0.0,64,0.00,,---,0.00,VWS V14.01,2013-10-08 20:50:00,
2013-10-08 23:56:00,61.5,49.2,30.21,East,81,0.0,0.0,64,0.00,,---,0.00,VWS V14.01,2013-10-08 20:56:00,